Home   Weather   Chattanooga   Past weeks
Flag for USA

Past Weather in Chattanooga, Tennessee, USA — Yesterday and Last 2 Weeks

Now
21 °F

Clear.


Feels Like: 6 °F
Forecast: 35 / 21 °F
Wind: 20 mph from North

Location: Lovell Field

Current Time: Jan 21, 2019 at 4:40:37 am

Latest Report: Jan 21, 2019 at 3:53 am


Visibility: 10 mi

Pressure: 30.37 "Hg

Humidity: 57%

Dew Point: 8 °F

Location of ChattanoogaLocation

Past Weather in Chattanooga — Graph

°F

Chattanooga Temperature Yesterday

Maximum temperature yesterday: 43 °F (at 12:04 am)
Minimum temperature yesterday: 25 °F (at 11:53 pm)
Average temperature yesterday: 33 °F

High & Low Weather Summary for the Past Weeks

 TemperatureHumidityPressure
High68 °F (Jan 7, 3:53 pm)97% (Jan 18, 12:06 am)30.40 "Hg (Jan 18, 12:06 am)
Low22 °F (Jan 21, 2:53 am)25% (Jan 9, 2:53 pm)29.48 "Hg (Jan 19, 5:53 pm)
Average44 °F70%30.15 "Hg
* Reported Jan 6 2:53 am — Jan 21 2:53 am, Chattanooga. Weather by CustomWeather, © 2019

Note: Actual official high and low records may vary slightly from our data, if they occured in-between our weather recording intervals... More about our weather records

Advertising

Chattanooga Weather History for the Previous 24 Hours

Scroll right to see more
 ConditionsComfort  
Time TempWeatherWind HumidityBarometerVisibility
2:53 am
Mon, Jan 21
22 °FClear.15 mph57%30.35 "Hg10 mi
1:53 am24 °FClear.18 mph55%30.33 "Hg10 mi
12:53 am24 °FClear.13 mph52%30.34 "Hg10 mi
11:53 pm
Sun, Jan 20
25 °FPassing clouds.13 mph48%30.32 "Hg10 mi
10:53 pm26 °FPassing clouds.12 mph52%30.31 "Hg10 mi
9:53 pm27 °FPassing clouds.15 mph53%30.29 "Hg10 mi
8:53 pm28 °FPassing clouds.14 mph56%30.29 "Hg10 mi
7:53 pm29 °FPassing clouds.16 mph51%30.27 "Hg10 mi
6:53 pm30 °FPassing clouds.15 mph49%30.24 "Hg10 mi
5:53 pm32 °FScattered clouds.13 mph45%30.19 "Hg10 mi
4:53 pm34 °FScattered clouds.13 mph44%30.17 "Hg10 mi
3:53 pm36 °FScattered clouds.15 mph40%30.14 "Hg10 mi
2:53 pm36 °FScattered clouds.14 mph44%30.13 "Hg10 mi
1:53 pm34 °FScattered clouds.15 mph48%30.11 "Hg10 mi
12:53 pm34 °FBroken clouds.15 mph54%30.10 "Hg10 mi
12:30 pm33 °FBroken clouds.21 mph54%30.11 "Hg10 mi
11:53 am32 °FPartly sunny.14 mph59%30.13 "Hg10 mi
10:53 am31 °FPartly sunny.13 mph64%30.11 "Hg10 mi
9:53 am31 °FOvercast.16 mph69%30.07 "Hg10 mi
8:53 am30 °FOvercast.16 mph72%30.02 "Hg10 mi
7:53 am31 °FOvercast.14 mph73%30.00 "Hg10 mi
6:53 am31 °FOvercast.23 mph69%29.96 "Hg10 mi
5:53 am33 °FOvercast.13 mph66%29.89 "Hg10 mi
4:53 am33 °FOvercast.18 mph70%29.85 "Hg10 mi
Weather by CustomWeather, © 2019

See weather overview